�������l�o���
Date,Time,MP-1(��Sv/h),MP-2(��Sv/h),MP-3(��Sv/h),MP-4(��Sv/h),MP-5(��Sv/h),MP-6(��Sv/h),MP-7(��Sv/h),MP-8(��Sv/h),����,����(m/s),���J
2023/04/12,00:00,0.571,0.826,0.497,1.031,0.731,0.325,0.578,0.548,��,6.9,��
2023/04/12,00:10,0.571,0.826,0.498,1.030,0.730,0.324,0.580,0.548,��,7.8,��
2023/04/12,00:20,0.572,0.827,0.497,1.031,0.730,0.326,0.580,0.547,��,7.7,��
2023/04/12,00:30,0.573,0.827,0.499,1.031,0.730,0.327,0.580,0.548,��,8.1,��
2023/04/12,00:40,0.573,0.827,0.499,1.029,0.729,0.325,0.581,0.549,��,7.5,��
2023/04/12,00:50,0.572,0.825,0.498,1.029,0.730,0.324,0.579,0.547,��,6.2,��
2023/04/12,01:00,0.572,0.827,0.499,1.032,0.732,0.323,0.579,0.547,��쓌,5.6,��
2023/04/12,01:10,0.570,0.829,0.499,1.031,0.730,0.326,0.580,0.548,��,5.9,��
2023/04/12,01:20,0.573,0.827,0.498,1.030,0.728,0.325,0.579,0.547,��,6.9,��
2023/04/12,01:30,0.572,0.828,0.499,1.031,0.729,0.325,0.580,0.548,��,6.9,��
2023/04/12,01:40,0.571,0.827,0.498,1.030,0.731,0.325,0.580,0.547,��,7.6,��
2023/04/12,01:50,0.570,0.827,0.497,1.032,0.733,0.327,0.580,0.548,��,9.0,��
2023/04/12,02:00,0.574,0.826,0.499,1.029,0.730,0.325,0.580,0.548,��,10.3,��
2023/04/12,02:10,0.571,0.827,0.497,1.031,0.731,0.325,0.580,0.547,��,10.5,��
2023/04/12,02:20,0.573,0.830,0.498,1.031,0.731,0.324,0.579,0.548,��,11.3,��
2023/04/12,02:30,0.572,0.827,0.499,1.030,0.731,0.324,0.581,0.547,��,10.2,��
2023/04/12,02:40,0.570,0.827,0.500,1.032,0.731,0.326,0.579,0.547,��,8.6,��
2023/04/12,02:50,0.573,0.829,0.499,1.029,0.729,0.324,0.580,0.549,��,9.2,��
2023/04/12,03:00,0.573,0.828,0.498,1.030,0.731,0.325,0.579,0.548,��,8.1,��
2023/04/12,03:10,0.572,0.828,0.499,1.033,0.730,0.325,0.580,0.547,��,6.8,��
2023/04/12,03:20,0.573,0.826,0.496,1.033,0.732,0.326,0.579,0.548,��,6.4,��
2023/04/12,03:30,0.573,0.827,0.498,1.033,0.731,0.325,0.581,0.548,��,7.4,��
2023/04/12,03:40,0.572,0.827,0.498,1.031,0.729,0.325,0.580,0.548,��,7.0,��
2023/04/12,03:50,0.572,0.826,0.499,1.032,0.730,0.326,0.580,0.548,��,6.8,��
2023/04/12,04:00,0.574,0.826,0.499,1.031,0.730,0.325,0.579,0.547,��,7.7,��
2023/04/12,04:10,0.571,0.827,0.498,1.031,0.730,0.325,0.580,0.548,��,7.3,��
2023/04/12,04:20,0.571,0.827,0.498,1.031,0.730,0.327,0.578,0.547,��,7.5,��
2023/04/12,04:30,0.572,0.827,0.497,1.030,0.729,0.326,0.580,0.546,��,7.4,��
2023/04/12,04:40,0.572,0.826,0.498,1.031,0.730,0.325,0.579,0.549,��,7.5,��
2023/04/12,04:50,0.572,0.828,0.497,1.031,0.730,0.325,0.580,0.548,��,7.3,��
2023/04/12,05:00,0.573,0.827,0.497,1.031,0.731,0.325,0.579,0.548,��,6.1,��
2023/04/12,05:10,0.571,0.827,0.497,1.030,0.730,0.324,0.579,0.548,��,5.1,��
2023/04/12,05:20,0.572,0.828,0.498,1.030,0.732,0.326,0.578,0.548,��,4.8,��
2023/04/12,05:30,0.571,0.829,0.498,1.032,0.732,0.326,0.579,0.547,��,5.5,��
2023/04/12,05:40,0.572,0.829,0.498,1.031,0.731,0.325,0.579,0.547,��,7.1,��
2023/04/12,05:50,0.573,0.827,0.500,1.031,0.732,0.325,0.579,0.548,��,7.0,��
2023/04/12,06:00,0.573,0.829,0.499,1.030,0.731,0.325,0.580,0.547,��,7.7,��
2023/04/12,06:10,0.571,0.828,0.499,1.031,0.732,0.325,0.580,0.548,��,8.2,��
2023/04/12,06:20,0.574,0.829,0.500,1.031,0.731,0.324,0.580,0.548,��,9.6,��
2023/04/12,06:30,0.572,0.826,0.499,1.033,0.732,0.325,0.579,0.548,��,8.6,��
2023/04/12,06:40,0.572,0.825,0.497,1.032,0.731,0.325,0.580,0.548,��,9.0,��
2023/04/12,06:50,0.573,0.828,0.500,1.032,0.730,0.326,0.579,0.548,��,9.2,��
2023/04/12,07:00,0.572,0.828,0.500,1.031,0.731,0.325,0.579,0.549,��,8.9,��
2023/04/12,07:10,0.573,0.828,0.502,1.031,0.730,0.325,0.579,0.548,��,9.3,��
2023/04/12,07:20,0.571,0.828,0.501,1.031,0.731,0.325,0.578,0.548,��,11.3,��
2023/04/12,07:30,0.573,0.827,0.501,1.031,0.732,0.325,0.581,0.548,��,9.6,��
2023/04/12,07:40,0.570,0.828,0.502,1.033,0.732,0.325,0.580,0.548,��,8.8,��
2023/04/12,07:50,0.571,0.829,0.501,1.033,0.730,0.323,0.579,0.549,��,8.8,��
2023/04/12,08:00,0.571,0.827,0.500,1.032,0.731,0.323,0.579,0.549,��,7.5,��
2023/04/12,08:10,0.571,0.826,0.501,1.033,0.729,0.324,0.579,0.548,��,7.4,��
2023/04/12,08:20,0.572,0.825,0.500,1.032,0.730,0.324,0.579,0.547,��,8.1,��
2023/04/12,08:30,0.571,0.826,0.502,1.031,0.730,0.324,0.580,0.549,��,8.1,��
2023/04/12,08:40,0.569,0.824,0.502,1.033,0.730,0.324,0.578,0.547,��,9.0,��
2023/04/12,08:50,0.569,0.826,0.501,1.032,0.729,0.325,0.579,0.549,��,8.4,��
2023/04/12,09:00,0.570,0.824,0.501,1.031,0.730,0.325,0.579,0.547,��,7.7,��
2023/04/12,09:10,0.569,0.826,0.503,1.030,0.728,0.323,0.580,0.548,��,7.7,��
2023/04/12,09:20,0.570,0.825,0.501,1.033,0.729,0.323,0.579,0.547,��,6.0,��
2023/04/12,09:30,0.569,0.826,0.500,1.033,0.730,0.324,0.578,0.546,��,5.0,��
2023/04/12,09:40,0.570,0.824,0.502,1.035,0.731,0.324,0.580,0.546,��,6.8,��
2023/04/12,09:50,0.569,0.825,0.501,1.033,0.730,0.324,0.578,0.547,��,6.6,��
2023/04/12,10:00,0.571,0.823,0.500,1.032,0.731,0.323,0.579,0.546,��,5.6,��
2023/04/12,10:10,0.571,0.822,0.500,1.034,0.729,0.324,0.581,0.547,��,5.4,��
2023/04/12,10:20,0.572,0.825,0.499,1.033,0.731,0.324,0.579,0.546,��,6.3,��
2023/04/12,10:30,0.571,0.825,0.498,1.035,0.731,0.325,0.580,0.546,��,7.2,��
2023/04/12,10:40,0.571,0.825,0.497,1.034,0.731,0.325,0.580,0.547,��쓌,9.4,��
2023/04/12,10:50,0.572,0.827,0.498,1.033,0.732,0.325,0.580,0.546,��쓌,11.3,��
2023/04/12,11:00,0.572,0.822,0.499,1.033,0.731,0.326,0.581,0.547,��쓌,14.9,��
2023/04/12,11:10,0.573,0.826,0.498,1.034,0.731,0.325,0.580,0.547,��쓌,13.0,��
2023/04/12,11:20,0.573,0.824,0.498,1.030,0.731,0.325,0.581,0.546,��,9.5,��
2023/04/12,11:30,0.571,0.826,0.498,1.032,0.730,0.325,0.580,0.548,��쓌,9.0,��
2023/04/12,11:40,0.571,0.826,0.499,1.032,0.731,0.324,0.582,0.546,��,9.1,��
2023/04/12,11:50,0.573,0.827,0.499,1.033,0.731,0.324,0.581,0.545,��쓌,11.4,��
2023/04/12,12:00,0.573,0.826,0.498,1.035,0.730,0.325,0.582,0.548,��쓌,9.0,��
2023/04/12,12:10,0.571,0.827,0.497,1.032,0.731,0.325,0.583,0.546,��쓌,9.7,��
2023/04/12,12:20,0.571,0.827,0.497,1.033,0.732,0.326,0.581,0.545,��,9.4,��
2023/04/12,12:30,0.572,0.826,0.496,1.034,0.731,0.324,0.581,0.545,��,4.8,��
2023/04/12,12:40,0.572,0.827,0.499,1.032,0.730,0.324,0.582,0.545,��쓌,3.7,��
2023/04/12,12:50,0.571,0.826,0.497,1.033,0.732,0.325,0.579,0.545,�쓌,2.8,��
2023/04/12,13:00,0.572,0.825,0.497,1.036,0.731,0.325,0.581,0.546,��,1.7,��
2023/04/12,13:10,0.572,0.826,0.498,1.033,0.731,0.327,0.580,0.546,�k��,3.2,��
2023/04/12,13:20,0.570,0.824,0.496,1.033,0.730,0.328,0.582,0.547,�k��,2.6,��
2023/04/12,13:30,0.571,0.825,0.500,1.034,0.730,0.326,0.581,0.546,�k�k��,7.5,�L
2023/04/12,13:40,0.571,0.826,0.500,1.034,0.732,0.325,0.579,0.546,�k,6.1,�L
2023/04/12,13:50,0.571,0.825,0.499,1.036,0.732,0.324,0.580,0.547,�k�k��,7.2,�L
2023/04/12,14:00,0.570,0.826,0.497,1.036,0.730,0.323,0.580,0.546,�k,8.3,�L
2023/04/12,14:10,0.572,0.827,0.497,1.033,0.729,0.323,0.580,0.549,�k,7.8,�L
2023/04/12,14:20,0.571,0.826,0.498,1.036,0.729,0.324,0.579,0.548,�k,7.2,�L
2023/04/12,14:30,0.570,0.826,0.498,1.035,0.730,0.324,0.578,0.546,�k�k��,8.1,�L
2023/04/12,14:40,0.571,0.827,0.498,1.035,0.732,0.323,0.578,0.545,�k,7.0,�L
2023/04/12,14:50,0.573,0.826,0.500,1.033,0.732,0.326,0.579,0.547,�k�k��,7.2,�L
2023/04/12,15:00,0.573,0.828,0.500,1.034,0.731,0.325,0.579,0.547,�k�k��,7.4,�L
2023/04/12,15:10,0.572,0.825,0.498,1.035,0.729,0.324,0.580,0.548,�k�k��,6.8,�L
2023/04/12,15:20,0.573,0.828,0.501,1.034,0.731,0.326,0.578,0.547,�k�k��,5.0,�L
2023/04/12,15:30,0.573,0.829,0.499,1.034,0.733,0.326,0.579,0.548,�k��,3.8,�L
2023/04/12,15:40,0.573,0.828,0.500,1.035,0.733,0.327,0.578,0.549,���k��,2.8,�L
2023/04/12,15:50,0.573,0.827,0.499,1.034,0.733,0.326,0.580,0.549,���k��,4.0,�L
2023/04/12,16:00,0.573,0.829,0.500,1.035,0.733,0.325,0.578,0.548,���k��,7.2,�L
2023/04/12,16:10,0.572,0.828,0.500,1.034,0.735,0.324,0.580,0.550,���k��,6.2,��
2023/04/12,16:20,0.573,0.828,0.500,1.032,0.733,0.326,0.580,0.549,�k��,5.7,��
2023/04/12,16:30,0.575,0.828,0.498,1.033,0.734,0.325,0.578,0.549,�k��,4.6,��
2023/04/12,16:40,0.573,0.828,0.501,1.033,0.731,0.324,0.580,0.547,�k�k��,5.8,��
2023/04/12,16:50,0.572,0.829,0.498,1.033,0.731,0.324,0.577,0.550,�k��,5.2,�L
2023/04/12,17:00,0.576,0.830,0.500,1.034,0.733,0.324,0.581,0.548,�k�k��,6.6,�L
2023/04/12,17:10,0.576,0.830,0.500,1.034,0.731,0.325,0.579,0.548,�k,6.4,�L
2023/04/12,17:20,0.575,0.829,0.499,1.035,0.733,0.326,0.578,0.549,�k�k��,6.3,�L
2023/04/12,17:30,0.573,0.828,0.500,1.034,0.732,0.327,0.580,0.549,�k��,6.6,��
2023/04/12,17:40,0.573,0.830,0.500,1.037,0.733,0.326,0.580,0.548,�k��,6.7,��
2023/04/12,17:50,0.573,0.828,0.500,1.036,0.731,0.326,0.578,0.550,�k��,8.4,��
2023/04/12,18:00,0.573,0.830,0.500,1.034,0.733,0.326,0.579,0.550,�k��,4.4,��
2023/04/12,18:10,0.573,0.829,0.500,1.035,0.733,0.326,0.580,0.550,�k��,3.4,��
2023/04/12,18:20,0.573,0.830,0.499,1.035,0.735,0.325,0.579,0.549,�k��,3.8,��
2023/04/12,18:30,0.573,0.828,0.498,1.035,0.733,0.325,0.579,0.550,�k��,4.3,��
2023/04/12,18:40,0.573,0.830,0.499,1.033,0.733,0.326,0.580,0.551,�k��,4.1,��
2023/04/12,18:50,0.571,0.828,0.500,1.034,0.732,0.326,0.581,0.550,���k��,5.8,��
2023/04/12,19:00,0.572,0.827,0.499,1.036,0.734,0.325,0.580,0.548,���k��,6.7,��
2023/04/12,19:10,0.572,0.828,0.499,1.035,0.733,0.325,0.580,0.548,�k��,6.9,��
2023/04/12,19:20,0.571,0.828,0.498,1.035,0.733,0.324,0.581,0.548,�k��,5.2,��
2023/04/12,19:30,0.571,0.827,0.498,1.033,0.732,0.326,0.579,0.548,���k��,6.2,��
2023/04/12,19:40,0.571,0.828,0.498,1.034,0.732,0.325,0.580,0.548,�k��,5.0,��
2023/04/12,19:50,0.572,0.828,0.498,1.035,0.732,0.326,0.581,0.549,�k��,6.1,��
2023/04/12,20:00,0.571,0.828,0.500,1.035,0.732,0.326,0.581,0.548,�k��,7.9,��
2023/04/12,20:10,0.571,0.828,0.498,1.033,0.732,0.325,0.581,0.550,�k��,7.3,��
2023/04/12,20:20,0.570,0.829,0.499,1.037,0.731,0.324,0.581,0.549,���k��,8.8,��
2023/04/12,20:30,0.571,0.829,0.498,1.034,0.731,0.326,0.581,0.548,���k��,9.8,��
2023/04/12,20:40,0.570,0.830,0.498,1.036,0.732,0.326,0.580,0.549,���k��,6.8,��
2023/04/12,20:50,0.573,0.828,0.498,1.035,0.731,0.325,0.579,0.549,�k��,6.5,��
2023/04/12,21:00,0.573,0.826,0.498,1.034,0.731,0.325,0.580,0.549,�k��,8.3,��
2023/04/12,21:10,0.571,0.826,0.497,1.035,0.732,0.326,0.580,0.549,�k��,8.7,��
2023/04/12,21:20,0.570,0.828,0.498,1.035,0.732,0.324,0.579,0.548,�k��,9.0,��
2023/04/12,21:30,0.571,0.829,0.499,1.036,0.733,0.325,0.579,0.549,�k�k��,10.7,��
2023/04/12,21:40,0.572,0.830,0.497,1.034,0.733,0.324,0.581,0.548,���k��,6.9,��
2023/04/12,21:50,0.571,0.828,0.500,1.036,0.731,0.325,0.580,0.548,�k��,9.4,��
2023/04/12,22:00,0.571,0.827,0.498,1.035,0.732,0.324,0.581,0.548,�k��,9.1,��
2023/04/12,22:10,0.571,0.830,0.500,1.035,0.731,0.324,0.580,0.548,�k��,8.0,��
2023/04/12,22:20,0.570,0.830,0.499,1.036,0.734,0.324,0.580,0.549,�k��,4.9,��
2023/04/12,22:30,0.569,0.828,0.497,1.034,0.732,0.324,0.579,0.548,�k��,5.3,��
2023/04/12,22:40,0.569,0.828,0.498,1.036,0.733,0.325,0.579,0.548,�k��,6.9,��
2023/04/12,22:50,0.570,0.829,0.497,1.036,0.731,0.325,0.581,0.548,�k��,6.6,��
2023/04/12,23:00,0.569,0.827,0.499,1.037,0.733,0.324,0.581,0.550,�k��,8.6,��
2023/04/12,23:10,0.569,0.826,0.497,1.036,0.732,0.325,0.581,0.550,�k�k��,8.0,��
2023/04/12,23:20,0.572,0.828,0.497,1.036,0.732,0.324,0.581,0.549,�k�k��,7.9,��
2023/04/12,23:30,0.570,0.829,0.497,1.037,0.731,0.324,0.580,0.548,�k�k��,6.0,��
2023/04/12,23:40,0.569,0.828,0.498,1.036,0.731,0.323,0.580,0.547,�k�k��,6.9,��
2023/04/12,23:50,0.571,0.828,0.499,1.037,0.731,0.325,0.581,0.548,�k�k��,5.5,��
